KB1JDX Weather Reports


Display with metric or nautical units.
time (UTC)temp
F
wind
direction
speed
MPH
gust
MPH
rain 1hr
in
rain 24hr
in
rain mn
in
humidity
%
barometer
mb
20171018110348 37 187 0.0 0.0 0.00 0.01 0.00 80 1025.1
20171018104348 37 187 0.0 0.0 0.00 0.01 0.00 80 1024.9
20171018103351 37 187 0.0 0.0 0.00 0.01 0.00 80 1024.7
20171018102348 36 187 0.0 0.0 0.00 0.01 0.00 81 1024.6
20171018100349 36 187 0.0 0.0 0.00 0.01 0.00 81 1024.7
20171018094350 37 188 0.0 0.0 0.00 0.01 0.00 80 1024.7
20171018093352 37 187 0.0 0.0 0.00 0.01 0.00 81 1024.8
20171018092350 37 187 0.0 0.0 0.00 0.01 0.00 81 1024.7
20171018084349 37 187 0.0 0.0 0.00 0.01 0.00 80 1024.4
20171018083351 37 187 0.0 0.0 0.00 0.01 0.00 80 1024.1
20171018082351 37 187 0.0 0.0 0.00 0.01 0.00 80 1024.1
20171018080351 38 187 0.0 0.0 0.00 0.01 0.00 80 1023.9
20171018073352 38 187 0.0 0.0 0.00 0.01 0.00 80 1023.9
20171018072350 38 187 0.0 0.0 0.00 0.01 0.00 80 1023.7
20171018070350 38 187 0.0 0.0 0.00 0.01 0.00 80 1023.9
20171018064349 38 187 0.0 0.0 0.00 0.01 0.00 80 1024.1
20171018063352 38 187 0.0 0.0 0.00 0.01 0.00 80 1024.2
20171018062350 37 187 0.0 0.0 0.00 0.01 0.00 80 1024.4
20171018060349 37 187 0.0 0.0 0.00 0.01 0.00 80 1024.4
20171018054349 37 187 0.0 0.0 0.00 0.01 0.00 80 1024.5
20171018053353 37 187 0.0 0.0 0.00 0.01 0.00 80 1024.6
20171018052349 38 187 0.0 0.0 0.00 0.01 0.00 80 1024.8
20171018050350 38 187 0.0 0.0 0.00 0.01 0.00 80 1024.8
20171018044350 38 187 0.0 0.0 0.00 0.01 0.00 80 1024.8
20171018043353 38 187 0.0 0.0 0.00 0.01 0.00 80 1024.8
20171018042351 39 187 0.0 0.0 0.00 0.01 0.00 80 1024.8
20171018040349 39 187 0.0 0.0 0.00 0.01 0.00 80 1024.9
20171018033351 39 187 0.0 0.0 0.00 0.01 0.01 80 1025.1
20171018033301 39 187 0.0 0.0 0.00 0.01 0.01 80 1025.1
20171018032349 39 187 0.0 0.0 0.00 0.01 0.01 80 1025.1
20171018030349 40 187 0.0 0.0 0.00 0.01 0.01 80 1025.1
20171018023352 40 187 0.0 0.0 0.00 0.01 0.01 80 1025.0
20171018022351 41 187 0.0 0.0 0.00 0.01 0.01 80 1025.1
20171018020351 42 187 0.0 0.0 0.00 0.01 0.01 80 1025.0
20171018014350 42 187 0.0 0.0 0.00 0.01 0.01 80 1025.1
20171018013352 43 187 0.0 0.0 0.00 0.01 0.01 80 1025.1
20171018012351 43 187 0.0 0.0 0.00 0.01 0.01 79 1025.0
20171018010351 44 187 0.0 0.0 0.00 0.01 0.01 78 1024.9
20171018004350 45 187 0.0 0.0 0.00 0.01 0.01 76 1024.8
20171018003353 45 187 0.0 0.0 0.00 0.01 0.01 76 1024.8
20171018002350 46 187 0.0 2.0 0.00 0.01 0.01 75 1024.8
20171018000351 46 187 0.0 2.0 0.00 0.01 0.01 73 1024.5
20171017234350 47 187 0.0 0.0 0.00 0.01 0.01 71 1024.4
20171017233352 48 187 0.0 0.0 0.00 0.01 0.01 70 1024.4
20171017232349 48 187 0.0 0.0 0.00 0.01 0.01 68 1024.3
20171017224351 49 224 0.0 0.0 0.00 0.01 0.01 63 1024.1
20171017223353 51 225 0.0 0.0 0.00 0.01 0.01 59 1023.9
20171017222350 52 225 0.0 0.0 0.00 0.01 0.01 59 1023.8
20171017220350 54 225 0.0 0.0 0.00 0.01 0.01 55 1023.6
20171017214351 56 225 0.0 8.0 0.00 0.01 0.01 44 1023.6
20171017213353 56 225 0.0 8.0 0.00 0.01 0.01 43 1023.6
20171017212350 57 229 0.0 6.0 0.00 0.01 0.01 41 1023.4
20171017210350 58 213 0.0 6.0 0.00 0.01 0.01 38 1023.4
20171017204351 59 193 0.0 6.0 0.00 0.01 0.01 36 1023.5
20171017203353 60 188 0.0 6.0 0.00 0.01 0.01 35 1023.5
20171017202350 61 221 1.0 4.0 0.00 0.01 0.01 35 1023.5
20171017200350 61 315 0.0 4.0 0.00 0.01 0.01 35 1023.5
20171017194350 60 284 0.0 5.0 0.00 0.01 0.01 36 1023.7
20171017193354 60 238 0.0 5.0 0.00 0.01 0.01 36 1023.7
20171017192351 60 216 0.0 5.0 0.00 0.01 0.01 34 1023.8
20171017190351 60 355 0.0 5.0 0.00 0.01 0.01 37 1023.9
20171017184350 59 333 0.0 6.0 0.00 0.01 0.01 36 1024.0
20171017183354 59 236 0.0 6.0 0.00 0.01 0.01 38 1024.2
20171017182351 58 331 0.0 9.0 0.00 0.01 0.01 40 1024.1
20171017180350 58 314 0.0 9.0 0.00 0.01 0.01 39 1024.6
20171017174352 57 33 0.0 2.0 0.00 0.01 0.01 43 1024.6
20171017173353 57 11 1.0 2.0 0.00 0.01 0.01 44 1024.8
20171017172351 56 316 0.0 5.0 0.00 0.01 0.01 43 1024.9
20171017170350 55 342 0.0 5.0 0.00 0.01 0.01 44 1025.1
20171017164352 55 215 0.0 7.0 0.00 0.01 0.01 46 1025.4
20171017163353 54 5 0.0 7.0 0.00 0.01 0.01 45 1025.6
20171017162352 54 232 0.0 8.0 0.00 0.01 0.01 48 1025.6
20171017154351 52 292 0.0 5.0 0.00 0.01 0.01 54 1026.0
20171017153352 51 29 0.0 5.0 0.00 0.01 0.01 54 1026.0
20171017152350 51 302 0.0 6.0 0.00 0.01 0.01 56 1026.1
20171017150351 49 52 0.0 6.0 0.00 0.01 0.01 57 1026.3
20171017144352 49 13 0.0 7.0 0.00 0.01 0.01 60 1026.3
20171017143354 47 355 0.0 7.0 0.00 0.01 0.01 64 1026.4
20171017142351 47 39 0.0 7.0 0.01 0.01 0.01 65 1026.4
20171017140352 45 97 0.0 7.0 0.01 0.01 0.01 71 1026.7
20171017134351 43 16 0.0 5.0 0.01 0.01 0.01 73 1026.7
20171017133354 43 82 5.0 5.0 0.01 0.01 0.01 76 1026.8
20171017132351 42 348 0.0 4.0 0.00 0.00 0.00 79 1026.8
20171017124352 36 22 0.0 0.0 0.00 0.00 0.00 81 1026.8
20171017123353 35 15 0.0 0.0 0.00 0.00 0.00 81 1026.8
20171017120351 33 15 0.0 0.0 0.00 0.00 0.00 81 1026.2
20171017114351 32 15 0.0 0.0 0.00 0.00 0.00 81 1026.1
20171017113353 32 15 0.0 0.0 0.00 0.00 0.00 81 1025.9